| time (UTC) | temp C | wind direction | speed KPH | gust KPH | rain 1hr cm | rain 24hr cm | rain mn cm | humidity % | barometer mb |
| 20260510020022 | 10 | 0 | 0.0 | 0.0 | 0.00 | 0.99 | 0.99 | 96 | 1009.2 |
| 20260510015518 | 10 | 0 | 0.0 | 0.0 | 0.00 | 0.99 | 0.99 | 96 | 1009.2 |
| 20260510015014 | 10 | 0 | 0.0 | 0.0 | 0.00 | 0.99 | 0.99 | 96 | 1009.2 |
| 20260510012511 | 10 | 18 | 0.0 | 1.6 | 0.00 | 0.99 | 0.99 | 95 | 1009.0 |
| 20260510012007 | 10 | 18 | 0.0 | 1.6 | 0.00 | 0.99 | 0.99 | 95 | 1009.0 |
| 20260510011507 | 10 | 18 | 0.0 | 1.6 | 0.00 | 0.99 | 0.99 | 95 | 1009.0 |
| 20260510010008 | 11 | 342 | 0.0 | 0.0 | 0.00 | 0.99 | 0.99 | 94 | 1008.5 |
| 20260510005504 | 11 | 342 | 0.0 | 0.0 | 0.00 | 0.99 | 0.99 | 94 | 1008.5 |
| 20260510005001 | 11 | 342 | 0.0 | 0.0 | 0.00 | 0.99 | 0.99 | 94 | 1008.5 |
| 20260510002011 | 12 | 344 | 0.0 | 0.0 | 0.00 | 0.99 | 0.99 | 89 | 1008.5 |
| 20260510001508 | 12 | 344 | 0.0 | 0.0 | 0.00 | 0.99 | 0.99 | 89 | 1008.5 |
| 20260510001006 | 12 | 344 | 0.0 | 0.0 | 0.00 | 0.99 | 0.99 | 89 | 1008.5 |
| 20260510000501 | 12 | 353 | 0.0 | 0.0 | 0.00 | 0.99 | 0.99 | 88 | 1008.4 |
| 20260509235958 | 13 | 8 | 0.0 | 1.6 | 0.00 | 0.99 | 0.99 | 86 | 1008.2 |
| 20260509235455 | 13 | 8 | 0.0 | 1.6 | 0.00 | 0.99 | 0.99 | 86 | 1008.2 |
| 20260509234951 | 13 | 346 | 0.0 | 0.0 | 0.00 | 0.99 | 0.99 | 84 | 1008.5 |
| 20260509230447 | 15 | 344 | 0.0 | 3.2 | 0.00 | 0.99 | 0.99 | 79 | 1008.1 |
| 20260509225943 | 15 | 344 | 0.0 | 3.2 | 0.00 | 0.99 | 0.99 | 79 | 1008.1 |
| 20260509225440 | 15 | 344 | 0.0 | 3.2 | 0.00 | 0.99 | 0.99 | 79 | 1008.1 |
| 20260509224936 | 15 | 344 | 0.0 | 1.6 | 0.00 | 0.99 | 0.99 | 77 | 1008.0 |
| 20260509220437 | 17 | 66 | 0.0 | 0.0 | 0.00 | 0.99 | 0.99 | 73 | 1008.3 |
| 20260509215934 | 17 | 66 | 0.0 | 0.0 | 0.00 | 0.99 | 0.99 | 73 | 1008.3 |
| 20260509215429 | 17 | 66 | 0.0 | 0.0 | 0.00 | 0.99 | 0.99 | 73 | 1008.3 |
| 20260509214927 | 17 | 189 | 3.2 | 3.2 | 0.00 | 0.99 | 0.99 | 71 | 1008.2 |
| 20260509210431 | 15 | 353 | 1.6 | 3.2 | 0.00 | 0.99 | 0.99 | 84 | 1008.9 |
| 20260509205926 | 15 | 353 | 1.6 | 3.2 | 0.00 | 0.99 | 0.99 | 84 | 1008.9 |
| 20260509205421 | 15 | 353 | 1.6 | 3.2 | 0.00 | 0.99 | 0.99 | 84 | 1008.9 |
| 20260509204917 | 15 | 151 | 1.6 | 3.2 | 0.00 | 0.99 | 0.99 | 84 | 1009.0 |
| 20260509204413 | 14 | 301 | 1.6 | 3.2 | 0.00 | 0.99 | 0.99 | 86 | 1008.9 |
| 20260509200411 | 13 | 303 | 1.6 | 3.2 | 0.00 | 0.99 | 0.99 | 88 | 1009.4 |
| 20260509195908 | 13 | 303 | 1.6 | 3.2 | 0.00 | 0.99 | 0.99 | 88 | 1009.4 |
| 20260509195403 | 13 | 303 | 1.6 | 3.2 | 0.00 | 0.99 | 0.99 | 88 | 1009.4 |
| 20260509194902 | 13 | 337 | 0.0 | 1.6 | 0.00 | 0.99 | 0.99 | 89 | 1009.4 |
| 20260509185859 | 12 | 40 | 0.0 | 0.0 | 0.30 | 0.94 | 0.94 | 92 | 1010.1 |
| 20260509185356 | 12 | 40 | 0.0 | 0.0 | 0.30 | 0.94 | 0.94 | 92 | 1010.1 |
| 20260509184853 | 12 | 40 | 0.0 | 0.0 | 0.30 | 0.94 | 0.94 | 92 | 1010.1 |
| 20260509184349 | 12 | 30 | 0.0 | 1.6 | 0.30 | 0.91 | 0.91 | 93 | 1010.1 |
| 20260509175849 | 12 | 59 | 0.0 | 3.2 | 0.18 | 0.58 | 0.58 | 89 | 1010.2 |
| 20260509175345 | 12 | 59 | 0.0 | 3.2 | 0.18 | 0.58 | 0.58 | 89 | 1010.2 |
| 20260509174841 | 12 | 59 | 0.0 | 3.2 | 0.18 | 0.58 | 0.58 | 89 | 1010.2 |
| 20260509170342 | 12 | 264 | 0.0 | 1.6 | 0.18 | 0.43 | 0.43 | 90 | 1009.9 |
| 20260509165841 | 12 | 264 | 0.0 | 1.6 | 0.18 | 0.43 | 0.43 | 90 | 1009.9 |
| 20260509165336 | 12 | 264 | 0.0 | 1.6 | 0.18 | 0.43 | 0.43 | 90 | 1009.9 |
| 20260509164832 | 12 | 344 | 0.0 | 1.6 | 0.18 | 0.41 | 0.41 | 90 | 1010.2 |
| 20260509164329 | 12 | 326 | 1.6 | 4.8 | 0.18 | 0.36 | 0.36 | 89 | 1010.3 |
| 20260509163825 | 12 | 326 | 1.6 | 4.8 | 0.18 | 0.36 | 0.36 | 89 | 1010.3 |
| 20260509163322 | 12 | 326 | 1.6 | 4.8 | 0.18 | 0.36 | 0.36 | 89 | 1010.3 |
| 20260509160334 | 12 | 343 | 0.0 | 1.6 | 0.18 | 0.25 | 0.25 | 87 | 1010.3 |
| 20260509155830 | 12 | 343 | 0.0 | 1.6 | 0.18 | 0.25 | 0.25 | 87 | 1010.3 |
| 20260509155326 | 12 | 343 | 0.0 | 1.6 | 0.18 | 0.25 | 0.25 | 87 | 1010.3 |
| 20260509154823 | 12 | 337 | 0.0 | 3.2 | 0.13 | 0.23 | 0.23 | 86 | 1010.4 |
| 20260509154319 | 12 | 209 | 1.6 | 1.6 | 0.18 | 0.20 | 0.20 | 86 | 1010.3 |
| 20260509153816 | 12 | 209 | 1.6 | 1.6 | 0.18 | 0.20 | 0.20 | 86 | 1010.3 |
| 20260509153313 | 12 | 209 | 1.6 | 1.6 | 0.18 | 0.20 | 0.20 | 86 | 1010.3 |
| 20260509150816 | 13 | 335 | 0.0 | 0.0 | 0.18 | 0.15 | 0.15 | 83 | 1010.5 |
| 20260509150313 | 13 | 335 | 0.0 | 0.0 | 0.18 | 0.15 | 0.15 | 83 | 1010.5 |
| 20260509145810 | 13 | 335 | 0.0 | 0.0 | 0.18 | 0.15 | 0.15 | 83 | 1010.5 |
| 20260509145309 | 12 | 9 | 0.0 | 0.0 | 0.00 | 0.13 | 0.13 | 84 | 1010.6 |
| 20260509144807 | 12 | 6 | 1.6 | 1.6 | 0.00 | 0.13 | 0.13 | 85 | 1010.5 |
| 20260509144303 | 12 | 24 | 0.0 | 0.0 | 0.13 | 0.13 | 0.13 | 86 | 1010.2 |
| 20260509143800 | 12 | 24 | 0.0 | 0.0 | 0.13 | 0.13 | 0.13 | 86 | 1010.2 |
| 20260509143257 | 12 | 24 | 0.0 | 0.0 | 0.13 | 0.13 | 0.13 | 86 | 1010.2 |
| 20260509142301 | 12 | 29 | 0.0 | 0.0 | 0.00 | 0.10 | 0.10 | 89 | 1010.2 |
| 20260509141757 | 12 | 29 | 0.0 | 0.0 | 0.00 | 0.10 | 0.10 | 89 | 1010.2 |
| 20260509141254 | 12 | 29 | 0.0 | 0.0 | 0.00 | 0.10 | 0.10 | 89 | 1010.2 |
| 20260509134255 | 12 | 359 | 0.0 | 0.0 | 0.18 | 0.10 | 0.10 | 88 | 1010.4 |
| 20260509133752 | 12 | 359 | 0.0 | 0.0 | 0.18 | 0.10 | 0.10 | 88 | 1010.4 |
| 20260509133248 | 12 | 359 | 0.0 | 0.0 | 0.18 | 0.10 | 0.10 | 88 | 1010.4 |
| 20260509130242 | 11 | 4 | 0.0 | 1.6 | 0.18 | 0.08 | 0.08 | 90 | 1010.1 |
| 20260509125738 | 11 | 4 | 0.0 | 1.6 | 0.18 | 0.08 | 0.08 | 90 | 1010.1 |
| 20260509125236 | 11 | 4 | 0.0 | 1.6 | 0.18 | 0.08 | 0.08 | 90 | 1010.1 |
| 20260509124239 | 11 | 45 | 1.6 | 1.6 | 0.00 | 0.05 | 0.05 | 91 | 1009.9 |
| 20260509123738 | 11 | 45 | 1.6 | 1.6 | 0.00 | 0.05 | 0.05 | 91 | 1009.9 |
| 20260509123235 | 11 | 45 | 1.6 | 1.6 | 0.00 | 0.05 | 0.05 | 91 | 1009.9 |
| 20260509120229 | 10 | 42 | 0.0 | 1.6 | 0.00 | 0.05 | 0.05 | 95 | 1010.0 |
| 20260509115727 | 10 | 42 | 0.0 | 1.6 | 0.00 | 0.05 | 0.05 | 95 | 1010.0 |
| 20260509115223 | 10 | 42 | 0.0 | 1.6 | 0.00 | 0.05 | 0.05 | 95 | 1010.0 |
| 20260509110220 | 10 | 61 | 0.0 | 1.6 | 0.13 | 0.05 | 0.05 | 95 | 1010.4 |
| 20260509105719 | 10 | 61 | 0.0 | 1.6 | 0.13 | 0.05 | 0.05 | 95 | 1010.4 |
| 20260509105216 | 10 | 61 | 0.0 | 1.6 | 0.13 | 0.05 | 0.05 | 95 | 1010.4 |
| 20260509100210 | 9 | 42 | 0.0 | 0.0 | 0.00 | 0.03 | 0.03 | 94 | 1010.1 |
| 20260509095707 | 9 | 42 | 0.0 | 0.0 | 0.00 | 0.03 | 0.03 | 94 | 1010.1 |
| 20260509095204 | 9 | 42 | 0.0 | 0.0 | 0.00 | 0.03 | 0.03 | 94 | 1010.1 |
| 20260509090155 | 9 | 56 | 1.6 | 1.6 | 0.00 | 0.03 | 0.03 | 94 | 1010.6 |
| 20260509085652 | 9 | 56 | 1.6 | 1.6 | 0.00 | 0.03 | 0.03 | 94 | 1010.6 |
| 20260509085148 | 9 | 56 | 1.6 | 1.6 | 0.00 | 0.03 | 0.03 | 94 | 1010.6 |
| 20260509080144 | 9 | 8 | 0.0 | 0.0 | 0.00 | 0.03 | 0.03 | 96 | 1011.4 |
| 20260509075642 | 9 | 8 | 0.0 | 0.0 | 0.00 | 0.03 | 0.03 | 96 | 1011.4 |
| 20260509075139 | 9 | 8 | 0.0 | 0.0 | 0.00 | 0.03 | 0.03 | 96 | 1011.4 |
| 20260509073137 | 9 | 17 | 0.0 | 3.2 | 0.00 | 0.03 | 0.03 | 96 | 1011.2 |
| 20260509072634 | 9 | 17 | 0.0 | 3.2 | 0.00 | 0.03 | 0.03 | 96 | 1011.2 |
| 20260509072131 | 9 | 17 | 0.0 | 3.2 | 0.00 | 0.03 | 0.03 | 96 | 1011.2 |
| 20260509070136 | 9 | 31 | 0.0 | 0.0 | 0.00 | 0.03 | 0.03 | 96 | 1011.4 |
| 20260509065631 | 9 | 31 | 0.0 | 0.0 | 0.00 | 0.03 | 0.03 | 96 | 1011.4 |
| 20260509065127 | 9 | 31 | 0.0 | 0.0 | 0.00 | 0.03 | 0.03 | 96 | 1011.4 |
| 20260509063128 | 9 | 19 | 0.0 | 0.0 | 0.00 | 0.03 | 0.03 | 96 | 1011.5 |
| 20260509062626 | 9 | 19 | 0.0 | 0.0 | 0.00 | 0.03 | 0.03 | 96 | 1011.5 |
| 20260509062122 | 9 | 19 | 0.0 | 0.0 | 0.00 | 0.03 | 0.03 | 96 | 1011.5 |
| 20260509060121 | 9 | 19 | 0.0 | 0.0 | 0.00 | 0.03 | 0.03 | 96 | 1011.9 |
| 20260509055617 | 9 | 19 | 0.0 | 0.0 | 0.00 | 0.03 | 0.03 | 96 | 1011.9 |
| 20260509055113 | 9 | 19 | 0.0 | 0.0 | 0.00 | 0.03 | 0.03 | 96 | 1011.9 |
| 20260509053115 | 9 | 348 | 0.0 | 0.0 | 0.00 | 0.00 | 0.00 | 96 | 1012.5 |
| 20260509052613 | 9 | 348 | 0.0 | 0.0 | 0.00 | 0.00 | 0.00 | 96 | 1012.5 |
| 20260509052110 | 9 | 348 | 0.0 | 0.0 | 0.00 | 0.00 | 0.00 | 96 | 1012.5 |
| 20260509050110 | 9 | 355 | 0.0 | 1.6 | 0.00 | 0.00 | 0.00 | 95 | 1011.8 |
| 20260509045608 | 9 | 355 | 0.0 | 1.6 | 0.00 | 0.00 | 0.00 | 95 | 1011.8 |
| 20260509045104 | 9 | 355 | 0.0 | 1.6 | 0.00 | 0.00 | 0.00 | 95 | 1011.8 |
| 20260509044110 | 9 | 6 | 0.0 | 0.0 | 0.00 | 0.00 | 0.00 | 95 | 1011.7 |
| 20260509043607 | 9 | 6 | 0.0 | 0.0 | 0.00 | 0.00 | 0.00 | 95 | 1011.7 |
| 20260509043102 | 9 | 6 | 0.0 | 0.0 | 0.00 | 0.00 | 0.00 | 95 | 1011.7 |
| 20260509042559 | 9 | 40 | 1.6 | 1.6 | 0.00 | 0.00 | 0.00 | 95 | 1011.4 |
| 20260509042055 | 9 | 40 | 1.6 | 1.6 | 0.00 | 0.00 | 0.00 | 95 | 1011.4 |
| 20260509041552 | 9 | 40 | 1.6 | 1.6 | 0.00 | 0.00 | 0.00 | 95 | 1011.4 |
| 20260509040055 | 9 | 10 | 0.0 | 0.0 | 0.00 | 0.13 | 0.13 | 95 | 1012.0 |
| 20260509035552 | 9 | 10 | 0.0 | 0.0 | 0.00 | 0.13 | 0.13 | 95 | 1012.0 |
| 20260509035049 | 9 | 10 | 0.0 | 0.0 | 0.00 | 0.13 | 0.13 | 95 | 1012.0 |
| 20260509032558 | 9 | 339 | 0.0 | 1.6 | 0.00 | 0.13 | 0.13 | 95 | 1012.0 |
| 20260509032055 | 9 | 339 | 0.0 | 1.6 | 0.00 | 0.13 | 0.13 | 95 | 1012.0 |
| 20260509031553 | 9 | 339 | 0.0 | 1.6 | 0.00 | 0.13 | 0.13 | 95 | 1012.0 |
| 20260509031049 | 9 | 2 | 0.0 | 0.0 | 0.13 | 0.13 | 0.13 | 95 | 1012.1 |
| 20260509030548 | 9 | 2 | 0.0 | 0.0 | 0.13 | 0.13 | 0.13 | 95 | 1012.1 |
| 20260509030044 | 8 | 13 | 0.0 | 0.0 | 0.00 | 0.10 | 0.10 | 95 | 1012.3 |
| 20260509025540 | 8 | 13 | 0.0 | 0.0 | 0.00 | 0.10 | 0.10 | 95 | 1012.3 |
| 20260509025036 | 8 | 13 | 0.0 | 0.0 | 0.00 | 0.10 | 0.10 | 95 | 1012.3 |